Time,TemperatureF,DewpointF,PressureIn,WindDirection,WindDirectionDegrees,WindSpeedMPH,WindSpeedGustMPH,Humidity,HourlyPrecipIn,Conditions,Clouds,dailyrainin,SoftwareType,DateUTC
2013-09-03 00:02:00,66.0,-99.9,-100.00,North,-999,-999.0,-999.0,-999,-99.99,,,0.00,,2013-09-03 07:02:00,
2013-09-03 00:10:00,65.0,-99.9,-100.00,North,-999,-999.0,-999.0,-999,-99.99,,,0.00,,2013-09-03 07:10:00,
2013-09-03 00:42:00,65.0,-99.9,-100.00,North,-999,-999.0,-999.0,-999,-99.99,,,0.00,,2013-09-03 07:42:00,
2013-09-03 00:53:00,65.0,-99.9,-100.00,North,-999,-999.0,-999.0,-999,-99.99,,,0.00,,2013-09-03 07:53:00,
2013-09-03 01:04:00,65.0,-99.9,-100.00,North,-999,-999.0,-999.0,-999,-99.99,,,0.00,,2013-09-03 08:04:00,
2013-09-03 01:10:00,64.0,-99.9,-100.00,North,-999,-999.0,-999.0,-999,-99.99,,,0.20,,2013-09-03 08:10:00,
2013-09-03 01:42:00,64.0,-99.9,-100.00,North,-999,-999.0,-999.0,-999,-99.99,,,0.20,,2013-09-03 08:42:00,
2013-09-03 01:52:00,64.0,-99.9,-100.00,North,-999,-999.0,-999.0,-999,-99.99,,,0.20,,2013-09-03 08:52:00,
2013-09-03 02:02:00,64.0,-99.9,-100.00,North,-999,-999.0,-999.0,-999,-99.99,,,0.20,,2013-09-03 09:02:00,
2013-09-03 02:10:00,63.0,-99.9,-100.00,North,-999,-999.0,-999.0,-999,-99.99,,,0.00,,2013-09-03 09:10:00,
2013-09-03 02:43:00,63.0,-99.9,-100.00,North,-999,-999.0,-999.0,-999,-99.99,,,0.00,,2013-09-03 09:43:00,
2013-09-03 02:54:00,63.0,-99.9,-100.00,North,-999,-999.0,-999.0,-999,-99.99,,,0.00,,2013-09-03 09:54:00,
2013-09-03 03:03:00,63.0,-99.9,-100.00,North,-999,-999.0,-999.0,-999,-99.99,,,0.00,,2013-09-03 10:03:00,
2013-09-03 03:10:00,63.0,-99.9,-100.00,North,-999,-999.0,-999.0,-999,-99.99,,,0.00,,2013-09-03 10:10:00,
2013-09-03 03:43:00,63.0,-99.9,-100.00,North,-999,-999.0,-999.0,-999,-99.99,,,0.00,,2013-09-03 10:43:00,
2013-09-03 03:53:00,63.0,-99.9,-100.00,North,-999,-999.0,-999.0,-999,-99.99,,,0.00,,2013-09-03 10:53:00,
2013-09-03 04:03:00,63.0,-99.9,-100.00,North,-999,-999.0,-999.0,-999,-99.99,,,0.00,,2013-09-03 11:03:00,
2013-09-03 04:10:00,63.0,-99.9,-100.00,North,-999,-999.0,-999.0,-999,-99.99,,,-99.99,,2013-09-03 11:10:00,
2013-09-03 04:43:00,63.0,-99.9,-100.00,North,-999,-999.0,-999.0,-999,-99.99,,,-99.99,,2013-09-03 11:43:00,
2013-09-03 04:52:00,63.0,-99.9,-100.00,North,-999,-999.0,-999.0,-999,-99.99,,,-99.99,,2013-09-03 11:52:00,
2013-09-03 05:02:00,63.0,-99.9,-100.00,North,-999,-999.0,-999.0,-999,-99.99,,,-99.99,,2013-09-03 12:02:00,
2013-09-03 05:10:00,63.0,-99.9,-100.00,North,-999,-999.0,-999.0,-999,-99.99,,,-99.99,,2013-09-03 12:10:00,
2013-09-03 05:42:00,63.0,-99.9,-100.00,North,-999,-999.0,-999.0,-999,-99.99,,,-99.99,,2013-09-03 12:42:00,
2013-09-03 05:52:00,63.0,-99.9,-100.00,North,-999,-999.0,-999.0,-999,-99.99,,,-99.99,,2013-09-03 12:52:00,
2013-09-03 06:02:00,63.0,-99.9,-100.00,North,-999,-999.0,-999.0,-999,-99.99,,,-99.99,,2013-09-03 13:02:00,
2013-09-03 06:10:00,62.0,-99.9,-100.00,North,-999,-999.0,-999.0,-999,-99.99,,,0.00,,2013-09-03 13:10:00,
2013-09-03 06:42:00,62.0,-99.9,-100.00,North,-999,-999.0,-999.0,-999,-99.99,,,0.00,,2013-09-03 13:42:00,
2013-09-03 06:52:00,62.0,-99.9,-100.00,North,-999,-999.0,-999.0,-999,-99.99,,,0.00,,2013-09-03 13:52:00,
2013-09-03 07:02:00,62.0,-99.9,-100.00,North,-999,-999.0,-999.0,-999,-99.99,,,0.00,,2013-09-03 14:02:00,
2013-09-03 08:22:00,64.0,-99.9,-100.00,North,-999,-999.0,-999.0,-999,-99.99,,,-99.99,,2013-09-03 15:22:00,
2013-09-03 08:44:00,64.0,-99.9,-100.00,North,-999,-999.0,-999.0,-999,-99.99,,,0.00,,2013-09-03 15:44:00,
2013-09-03 08:54:00,64.0,-99.9,-100.00,North,-999,-999.0,-999.0,-999,-99.99,,,0.00,,2013-09-03 15:54:00,
2013-09-03 09:14:00,66.0,-99.9,-100.00,North,-999,-999.0,-999.0,-999,-99.99,,,-99.99,,2013-09-03 16:14:00,
2013-09-03 09:24:00,66.0,-99.9,-100.00,North,-999,-999.0,-999.0,-999,-99.99,,,-99.99,,2013-09-03 16:24:00,
2013-09-03 09:43:00,69.0,-99.9,-100.00,North,-999,-999.0,-999.0,-999,-99.99,,,0.00,,2013-09-03 16:43:00,
2013-09-03 09:54:00,69.0,-99.9,-100.00,North,-999,-999.0,-999.0,-999,-99.99,,,0.00,,2013-09-03 16:54:00,
2013-09-03 10:13:00,71.0,-99.9,-100.00,North,-999,-999.0,-999.0,-999,-99.99,,,-99.99,,2013-09-03 17:13:00,
2013-09-03 10:43:00,73.0,-99.9,-100.00,North,-999,-999.0,-999.0,-999,-99.99,,,0.00,,2013-09-03 17:43:00,
2013-09-03 10:50:00,77.0,-99.9,-100.00,North,-999,-999.0,-999.0,-999,-99.99,,,-99.99,,2013-09-03 17:50:00,
2013-09-03 10:52:00,73.0,-99.9,-100.00,North,-999,-999.0,-999.0,-999,-99.99,,,0.00,,2013-09-03 17:52:00,
2013-09-03 11:02:00,73.0,-99.9,-100.00,North,-999,-999.0,-999.0,-999,-99.99,,,0.00,,2013-09-03 18:02:00,
2013-09-03 11:22:00,77.0,-99.9,-100.00,North,-999,-999.0,-999.0,-999,-99.99,,,-99.99,,2013-09-03 18:22:00,
2013-09-03 11:32:00,77.0,-99.9,-100.00,North,-999,-999.0,-999.0,-999,-99.99,,,-99.99,,2013-09-03 18:32:00,
2013-09-03 11:43:00,77.0,-99.9,-100.00,North,-999,-999.0,-999.0,-999,-99.99,,,-99.99,,2013-09-03 18:43:00,
2013-09-03 13:22:00,85.0,-99.9,-100.00,North,-999,-999.0,-999.0,-999,-99.99,,,-99.99,,2013-09-03 20:22:00,
2013-09-03 13:42:00,82.0,-99.9,-100.00,North,-999,-999.0,-999.0,-999,-99.99,,,0.00,,2013-09-03 20:42:00,
2013-09-03 13:53:00,82.0,-99.9,-100.00,North,-999,-999.0,-999.0,-999,-99.99,,,0.00,,2013-09-03 20:53:00,
2013-09-03 14:02:00,82.0,-99.9,-100.00,North,-999,-999.0,-999.0,-999,-99.99,,,0.00,,2013-09-03 21:02:00,
2013-09-03 14:22:00,84.0,-99.9,-100.00,North,-999,-999.0,-999.0,-999,-99.99,,,-99.99,,2013-09-03 21:22:00,
2013-09-03 14:44:00,84.0,-99.9,-100.00,North,-999,-999.0,-999.0,-999,-99.99,,,1.34,,2013-09-03 21:44:00,
2013-09-03 14:54:00,84.0,-99.9,-100.00,North,-999,-999.0,-999.0,-999,-99.99,,,1.34,,2013-09-03 21:54:00,
2013-09-03 15:10:00,85.0,-99.9,-100.00,North,-999,-999.0,-999.0,-999,-99.99,,,0.00,,2013-09-03 22:10:00,
2013-09-03 15:14:00,86.0,-99.9,-100.00,North,-999,-999.0,-999.0,-999,-99.99,,,-99.99,,2013-09-03 22:14:00,
2013-09-03 15:24:00,86.0,-99.9,-100.00,North,-999,-999.0,-999.0,-999,-99.99,,,-99.99,,2013-09-03 22:24:00,
2013-09-03 15:43:00,85.0,-99.9,-100.00,North,-999,-999.0,-999.0,-999,-99.99,,,0.00,,2013-09-03 22:43:00,
2013-09-03 15:53:00,85.0,-99.9,-100.00,North,-999,-999.0,-999.0,-999,-99.99,,,0.00,,2013-09-03 22:53:00,
2013-09-03 16:04:00,85.0,-99.9,-100.00,North,-999,-999.0,-999.0,-999,-99.99,,,0.00,,2013-09-03 23:04:00,
2013-09-03 16:10:00,85.0,-99.9,-100.00,North,-999,-999.0,-999.0,-999,-99.99,,,0.00,,2013-09-03 23:10:00,
2013-09-03 16:42:00,85.0,-99.9,-100.00,North,-999,-999.0,-999.0,-999,-99.99,,,0.00,,2013-09-03 23:42:00,
2013-09-03 16:54:00,85.0,-99.9,-100.00,North,-999,-999.0,-999.0,-999,-99.99,,,0.00,,2013-09-03 23:54:00,
2013-09-03 17:02:00,85.0,-99.9,-100.00,North,-999,-999.0,-999.0,-999,-99.99,,,0.00,,2013-09-04 00:02:00,
2013-09-03 17:42:00,85.0,-99.9,-100.00,North,-999,-999.0,-999.0,-999,-99.99,,,0.00,,2013-09-04 00:42:00,
2013-09-03 17:52:00,85.0,-99.9,-100.00,North,-999,-999.0,-999.0,-999,-99.99,,,0.00,,2013-09-04 00:52:00,
2013-09-03 18:02:00,85.0,-99.9,-100.00,North,-999,-999.0,-999.0,-999,-99.99,,,0.00,,2013-09-04 01:02:00,
2013-09-03 18:10:00,81.0,-99.9,-100.00,North,-999,-999.0,-999.0,-999,-99.99,,,0.00,,2013-09-04 01:10:00,
2013-09-03 18:42:00,81.0,-99.9,-100.00,North,-999,-999.0,-999.0,-999,-99.99,,,0.00,,2013-09-04 01:42:00,
2013-09-03 18:53:00,81.0,-99.9,-100.00,North,-999,-999.0,-999.0,-999,-99.99,,,0.00,,2013-09-04 01:53:00,
2013-09-03 19:02:00,81.0,-99.9,-100.00,North,-999,-999.0,-999.0,-999,-99.99,,,0.00,,2013-09-04 02:02:00,
2013-09-03 19:43:00,77.0,-99.9,-100.00,North,-999,-999.0,-999.0,-999,-99.99,,,-99.99,,2013-09-04 02:43:00,
2013-09-03 20:12:00,73.0,-99.9,-100.00,North,-999,-999.0,-999.0,-999,-99.99,,,-99.99,,2013-09-04 03:12:00,
2013-09-03 20:23:00,73.0,-99.9,-100.00,North,-999,-999.0,-999.0,-999,-99.99,,,-99.99,,2013-09-04 03:23:00,
2013-09-03 20:45:00,70.0,-99.9,-100.00,North,-999,-999.0,-999.0,-999,-99.99,,,0.00,,2013-09-04 03:45:00,
2013-09-03 20:55:00,70.0,-99.9,-100.00,North,-999,-999.0,-999.0,-999,-99.99,,,0.00,,2013-09-04 03:55:00,
2013-09-03 21:04:00,70.0,-99.9,-100.00,North,-999,-999.0,-999.0,-999,-99.99,,,0.00,,2013-09-04 04:04:00,
2013-09-03 21:10:00,67.0,-99.9,-100.00,North,-999,-999.0,-999.0,-999,-99.99,,,0.00,,2013-09-04 04:10:00,
2013-09-03 21:24:00,68.0,-99.9,-100.00,North,-999,-999.0,-999.0,-999,-99.99,,,-99.99,,2013-09-04 04:24:00,
2013-09-03 21:44:00,67.0,-99.9,-100.00,North,-999,-999.0,-999.0,-999,-99.99,,,0.00,,2013-09-04 04:44:00,
2013-09-03 21:54:00,67.0,-99.9,-100.00,North,-999,-999.0,-999.0,-999,-99.99,,,0.00,,2013-09-04 04:54:00,
2013-09-03 22:03:00,67.0,-99.9,-100.00,North,-999,-999.0,-999.0,-999,-99.99,,,0.00,,2013-09-04 05:03:00,
2013-09-03 22:10:00,65.0,-99.9,-100.00,North,-999,-999.0,-999.0,-999,-99.99,,,0.00,,2013-09-04 05:10:00,
2013-09-03 22:43:00,65.0,-99.9,-100.00,North,-999,-999.0,-999.0,-999,-99.99,,,0.00,,2013-09-04 05:43:00,
2013-09-03 22:53:00,65.0,-99.9,-100.00,North,-999,-999.0,-999.0,-999,-99.99,,,0.00,,2013-09-04 05:53:00,
2013-09-03 23:02:00,65.0,-99.9,-100.00,North,-999,-999.0,-999.0,-999,-99.99,,,0.00,,2013-09-04 06:02:00,
2013-09-03 23:10:00,64.0,-99.9,-100.00,North,-999,-999.0,-999.0,-999,-99.99,,,0.00,,2013-09-04 06:10:00,
2013-09-03 23:42:00,64.0,-99.9,-100.00,North,-999,-999.0,-999.0,-999,-99.99,,,0.00,,2013-09-04 06:42:00,
2013-09-03 23:52:00,64.0,-99.9,-100.00,North,-999,-999.0,-999.0,-999,-99.99,,,0.00,,2013-09-04 06:52:00,